Lapse_Rate
6.8 6.7 6.8 6.7 6.7 6.8 6.6 6.5 6.3 6.0 5.7 5.5 5.3 5.3 5.4 5.5 5.2 5.3 5.2 5.5 6.0 6.1 6.0 6.4 6.4 6.4 6.5 6.7 6.6 6.6 6.7 6.7 6.7 6.6 6.5 6.3 6.1 6.2 6.1 6.0 6.0 6.0 6.0
6.8 6.8 6.8 6.9 6.7 6.8 6.6 6.5 6.2 6.1 5.9 5.7 5.4 5.3 5.2 5.5 5.3 5.3 5.2 5.5 6.0 6.1 6.1 6.3 6.5 6.5 6.5 6.6 6.6 6.6 6.6 6.7 6.7 6.7 6.5 6.3 6.3 6.2 6.1 6.1 6.0 5.9 5.9
6.8 6.9 6.8 6.9 6.7 6.7 6.6 6.4 6.3 6.2 6.0 5.7 5.8 5.5 5.5 5.5 5.3 5.2 5.3 5.4 5.9 6.2 6.1 6.3 6.5 6.4 6.4 6.5 6.6 6.6 6.5 6.6 6.6 6.6 6.6 6.4 6.2 6.2 6.2 6.1 6.0 5.9 5.9
6.9 6.8 6.9 6.8 6.8 6.7 6.8 6.6 6.2 6.1 6.1 5.8 5.5 5.3 5.4 5.6 5.4 5.3 5.3 5.3 5.6 6.2 6.3 6.3 6.4 6.4 6.5 6.5 6.7 6.5 6.5 6.4 6.3 6.4 6.5 6.4 6.3 6.3 6.2 6.1 6.1 6.0 6.0
6.9 6.9 6.8 6.7 6.6 6.7 6.8 6.7 6.4 6.2 6.0 6.0 5.7 5.5 5.3 5.6 5.6 5.4 5.2 5.2 5.4 6.2 6.3 6.2 6.3 6.4 6.4 6.4 6.8 6.7 6.5 6.4 6.3 6.3 6.4 6.3 6.1 6.3 6.4 6.4 6.2 6.1 6.0
7.0 6.9 6.8 6.7 6.5 6.6 6.6 6.6 6.6 6.3 6.2 5.7 5.7 5.5 5.3 5.4 5.3 5.0 5.2 5.2 5.5 6.1 6.2 6.2 6.4 6.5 6.5 6.5 6.7 6.7 6.5 6.4 6.3 6.2 6.5 6.4 6.2 6.1 6.1 6.2 6.2 6.2 6.0
7.2 7.0 6.9 6.7 6.6 6.6 6.5 6.4 6.2 6.1 6.2 6.0 5.5 5.5 5.5 5.4 5.4 5.0 4.8 4.9 5.5 5.9 6.2 6.2 6.4 6.4 6.4 6.6 6.7 6.6 6.4 6.2 6.2 6.4 6.5 6.2 6.3 6.3 6.3 6.2 6.2 6.0 6.0
7.2 7.1 7.0 6.8 6.5 6.6 6.4 6.5 6.3 6.1 6.0 6.0 5.8 5.7 5.6 5.2 5.1 5.0 4.9 5.0 5.6 5.8 6.1 6.3 6.5 6.4 6.4 6.5 6.6 6.4 6.3 6.2 6.1 6.0 5.9 5.9 5.9 6.0 6.1 6.0 6.0 5.9 5.7
7.3 7.2 7.0 6.9 6.7 6.7 6.5 6.5 6.4 6.2 6.1 5.9 5.8 5.6 5.4 5.2 5.2 4.9 5.2 4.9 5.4 5.7 6.0 6.3 6.6 6.6 6.6 6.6 6.4 6.3 6.3 6.3 6.1 5.9 5.9 5.9 5.8 5.8 5.9 5.8 5.7 5.9 5.8
7.3 7.3 7.3 7.1 6.8 6.7 6.5 6.4 6.3 6.1 6.0 6.1 5.9 5.8 5.3 5.6 5.5 5.4 5.2 4.9 5.3 5.7 6.0 6.4 6.3 6.4 6.3 6.5 6.4 6.2 6.0 5.8 5.8 5.8 5.8 5.8 5.9 5.7 5.7 5.7 5.7 5.7 5.7
7.4 7.4 7.4 7.1 6.9 6.8 6.4 6.3 6.2 5.9 5.8 5.9 6.0 5.4 5.4 5.3 5.5 5.5 5.2 5.0 5.5 5.8 5.9 6.2 6.1 5.9 5.9 6.0 6.1 6.1 5.8 5.7 5.7 5.7 5.8 5.9 5.9 5.9 5.6 5.5 5.5 5.6 5.5
7.4 7.5 7.4 7.2 6.9 6.8 6.4 6.1 6.0 5.8 5.7 5.8 5.6 5.6 5.3 5.3 5.8 5.7 5.5 4.8 5.2 5.4 5.7 5.8 5.7 5.7 5.7 5.8 5.8 5.7 5.7 5.6 5.7 5.8 5.8 6.0 5.9 5.6 5.5 5.6 5.3 5.0 4.8
7.5 7.6 7.3 7.2 6.9 6.8 6.4 6.0 6.0 5.6 5.5 5.5 5.4 5.2 5.2 5.4 5.5 5.7 5.4 4.9 4.6 5.0 5.5 5.6 5.5 5.6 5.5 5.5 5.4 5.3 5.4 5.5 5.7 5.8 5.8 5.7 5.6 5.5 5.3 5.1 4.7 4.5 4.6
7.5 7.4 7.4 7.3 6.9 6.8 6.4 5.9 5.8 5.3 5.6 5.5 5.2 5.7 5.2 5.4 5.2 5.5 5.4 5.2 4.8 4.5 4.7 5.4 5.9 5.5 5.3 5.4 5.3 5.3 5.3 5.4 5.5 5.5 5.6 5.4 5.4 5.3 5.1 4.9 4.6 4.5 4.6
7.6 7.5 7.5 7.3 7.1 6.8 6.3 6.0 5.8 5.4 5.6 5.4 5.1 5.1 5.2 5.3 5.3 5.4 5.1 5.1 4.8 4.7 4.7 5.1 5.4 5.1 5.0 4.9 4.8 4.5 4.9 5.1 5.2 5.0 5.1 5.3 5.2 5.2 5.0 4.9 4.7 4.8 4.9
7.4 7.5 7.5 7.4 7.2 6.8 6.4 6.2 5.8 5.3 5.5 5.7 5.5 5.4 5.2 5.3 5.3 5.2 5.0 5.0 4.7 4.6 4.8 4.8 4.8 4.6 4.6 4.5 4.7 4.7 5.0 5.0 4.9 5.0 5.0 5.0 5.1 5.2 5.1 5.0 4.9 4.9 4.8
7.3 7.4 7.7 7.6 7.4 6.9 6.5 6.2 5.8 5.5 5.4 5.4 5.1 5.2 5.5 5.3 5.4 5.0 5.0 5.0 5.0 4.8 4.8 4.5 4.8 4.8 4.8 4.9 5.1 4.9 4.9 5.1 5.1 4.9 4.8 5.0 5.0 5.2 5.2 5.0 4.9 5.1 5.1
7.4 7.3 7.6 7.7 7.5 7.2 6.6 6.0 5.7 5.6 5.4 5.4 5.4 5.3 5.1 5.4 5.4 5.0 5.0 5.0 5.1 5.2 4.8 5.2 5.0 5.0 5.2 5.2 5.2 5.3 5.1 5.0 5.0 5.1 5.1 5.0 5.0 5.0 5.1 5.5 5.5 5.3 5.4
7.1 7.0 7.4 7.6 7.6 7.4 6.8 6.0 5.7 5.6 5.7 5.9 5.6 5.3 5.2 5.1 5.2 5.2 5.3 5.3 5.2 5.1 5.2 5.2 5.5 5.5 5.5 5.4 5.5 5.5 5.4 5.3 5.4 5.0 4.8 5.4 5.7 5.3 5.3 5.5 5.6 5.7 5.6
7.0 7.1 7.2 7.5 7.6 7.4 7.1 6.4 6.0 5.8 5.9 5.9 5.7 5.5 5.4 5.3 5.3 5.4 5.4 5.6 5.4 5.6 5.5 5.5 5.4 5.4 5.3 5.2 5.4 5.5 5.6 5.5 5.4 5.1 5.4 5.6 5.5 5.5 5.6 5.7 5.9 5.8 5.8
6.3 6.5 6.7 7.4 7.7 7.7 7.5 6.9 5.8 5.6 5.7 5.9 5.7 5.6 5.6 5.5 5.2 5.3 5.3 5.5 5.4 5.6 5.3 5.3 5.2 5.4 5.4 5.3 5.4 5.3 5.4 5.4 5.4 5.4 5.8 5.6 6.0 5.8 5.6 5.7 5.9 5.7 5.7
6.5 6.5 6.7 7.3 7.7 7.7 7.5 7.0 5.9 5.7 5.8 5.5 5.9 5.6 5.6 5.6 5.6 5.7 5.7 5.6 5.5 5.7 5.6 5.4 5.5 5.6 5.6 5.5 5.4 5.5 5.6 5.7 5.7 5.7 5.6 5.8 5.9 5.9 6.0 6.0 6.2 5.9 5.9
6.7 6.7 6.8 7.2 7.5 7.8 7.5 7.1 6.4 5.6 5.6 5.8 5.9 5.9 5.7 5.6 5.6 5.7 5.6 5.7 5.7 5.6 5.5 5.7 5.5 5.6 5.5 5.5 5.6 5.5 5.4 5.8 6.0 5.8 5.7 5.5 5.8 5.8 5.8 6.0 6.0 5.8 5.8
6.2 6.1 6.2 6.7 7.2 7.5 7.4 7.1 6.8 5.8 5.6 5.5 6.1 6.0 5.8 5.9 5.9 5.8 5.8 5.4 5.4 5.4 5.4 5.3 5.5 5.4 5.6 5.5 5.5 5.6 5.9 5.6 5.6 5.8 5.9 6.0 6.0 5.9 5.9 5.7 5.6 5.7 5.7
5.5 6.3 6.4 6.5 6.8 7.3 7.2 6.8 6.4 5.7 5.6 5.7 5.4 5.7 5.7 5.8 5.8 5.9 5.6 5.6 5.6 5.6 5.5 5.5 5.7 5.6 5.2 5.6 5.6 5.5 5.7 5.7 5.9 5.9 5.5 6.0 5.8 5.8 5.7 5.6 5.8 6.0 5.9
5.3 5.9 5.6 6.5 6.4 6.3 6.3 6.0 6.2 6.1 6.0 5.7 5.7 5.7 5.6 5.4 5.6 5.8 5.6 5.8 6.0 5.9 5.7 5.7 5.7 5.9 5.7 5.8 5.7 5.9 6.0 5.8 5.9 5.7 5.8 5.6 5.5 5.5 5.9 6.1 6.0 6.1 6.1
Wind_Speed
7 7 7 11 12 13 11 7 7 6 6 7 7 7 7 10 13 14 14 25 23 21 22 21 21 20 20 20 20 20 18 17 18 17 16 15 15 14 13 13 12 12 12
7 7 8 8 9 14 13 12 7 5 4 5 4 8 6 11 11 14 14 19 24 21 22 22 22 22 20 20 21 19 19 18 18 17 17 15 15 14 13 12 11 10 10
12 8 8 7 8 14 13 10 7 6 4 4 5 4 6 8 9 13 13 15 20 23 22 22 21 22 22 22 21 20 19 17 17 17 16 16 15 14 13 12 11 10 9
16 9 8 8 11 11 10 7 7 7 6 6 5 4 3 9 11 12 14 14 16 17 22 21 22 21 21 20 20 20 19 17 16 16 15 16 16 15 14 12 11 10 9
16 9 8 7 13 7 7 7 7 8 7 7 7 5 5 5 6 11 13 15 16 17 17 23 23 23 23 21 20 19 18 19 18 17 16 15 15 15 15 13 11 11 10
14 9 7 8 9 7 7 8 10 7 6 8 6 5 4 4 5 6 9 14 15 15 17 18 19 20 25 24 22 20 19 19 19 19 18 17 16 16 15 14 14 13 13
12 10 7 8 7 8 10 11 7 10 6 6 5 3 2 3 4 6 8 9 11 14 16 18 16 16 20 26 25 21 21 21 20 19 18 18 17 17 17 17 17 16 15
13 10 9 8 8 6 8 12 11 5 5 9 6 5 4 2 3 5 5 6 9 13 12 15 15 16 16 17 20 24 21 21 22 21 21 20 20 20 20 19 18 18 18
11 11 11 9 9 8 8 10 11 13 8 8 7 4 3 3 5 3 7 7 9 7 11 13 14 16 19 19 23 23 26 25 22 23 23 22 22 22 22 22 21 21 21
10 10 10 10 10 8 9 10 10 11 10 10 6 7 2 4 8 4 3 6 8 9 9 9 13 15 17 17 21 22 26 29 27 24 21 23 23 23 23 23 23 23 22
10 11 11 10 9 8 9 10 11 13 11 10 11 8 2 3 2 8 7 5 2 8 8 8 12 15 18 18 17 21 28 31 32 30 25 21 23 25 25 25 25 25 25
6 10 12 11 10 9 8 9 11 14 12 11 12 9 7 9 9 9 4 7 9 4 6 8 7 13 15 17 19 24 30 34 35 34 32 28 24 21 23 25 25 26 26
7 9 11 9 8 8 9 10 10 11 13 14 16 11 7 7 9 4 4 4 5 2 3 4 7 14 15 18 20 26 30 35 37 37 36 33 30 27 26 25 25 26 28
9 10 10 8 7 7 7 9 9 9 11 8 15 10 6 7 8 5 6 4 2 3 3 4 4 8 15 18 22 27 22 34 37 36 36 35 35 34 33 32 29 29 30
7 10 9 8 7 7 9 8 9 10 9 10 13 12 9 5 6 4 3 4 5 5 9 4 4 7 13 15 18 20 21 24 33 33 35 35 34 34 33 33 34 34 31
10 10 9 9 8 8 9 11 10 8 10 9 9 14 12 8 6 5 3 3 3 4 3 5 5 4 8 11 16 19 20 20 25 30 32 34 36 34 35 35 36 34 40
12 11 11 10 9 9 8 9 8 9 11 9 11 13 14 12 8 6 4 3 2 1 3 2 2 2 4 5 6 14 13 15 15 24 29 30 34 34 36 35 32 29 25
11 11 10 10 8 7 7 8 8 7 12 12 10 14 11 9 10 8 6 7 7 6 3 6 5 4 4 4 5 4 7 13 14 18 25 28 31 30 18 15 15 15 17
10 9 9 10 9 9 8 5 7 7 6 10 13 10 11 11 11 7 8 7 6 5 4 4 4 2 4 1 4 3 4 5 9 14 15 16 16 17 19 16 16 13 11
12 11 10 9 8 8 8 8 6 6 7 6 5 8 10 11 11 10 8 8 5 5 4 3 5 3 2 3 3 3 3 3 3 10 21 21 22 22 18 18 17 17 15
10 11 9 6 6 4 2 3 7 7 7 7 7 7 7 10 11 10 7 7 6 5 3 5 3 3 3 3 4 3 4 2 3 2 5 6 8 10 12 15 15 16 14
9 12 10 8 7 4 6 5 3 7 8 8 8 7 5 6 6 7 11 12 1 8 8 6 6 4 4 2 2 1 2 3 3 6 1 3 6 6 9 12 15 16 16
10 11 12 10 9 7 7 3 5 5 7 6 5 4 6 4 7 9 14 16 14 13 6 2 5 2 3 2 2 1 1 1 2 2 1 3 3 5 5 12 13 15 16
12 9 10 10 10 10 16 13 14 11 9 9 8 7 6 5 3 8 8 10 10 10 7 5 7 6 4 1 2 2 2 4 4 3 2 3 2 2 3 7 11 11 12
14 12 11 11 12 12 16 15 11 11 11 11 10 8 6 4 6 13 11 11 11 11 18 23 23 20 17 14 4 4 2 3 2 2 4 2 2 3 1 1 4 7 8
12 11 11 12 16 12 20 20 14 7 11 9 9 10 16 11 14 13 11 10 11 7 7 8 6 11 16 15 17 7 1 1 3 2 2 2 2 3 2 1 1 2 4
Wind_Direction
162 158 157 163 164 164 167 165 167 167 181 187 191 171 165 162 167 158 167 169 168 169 168 166 170 170 175 166 152 149 160 167 165 165 164 164 162 163 158 151 153 153 150
162 167 165 167 169 177 174 175 180 175 179 180 182 179 169 181 172 156 169 175 171 174 172 173 174 178 176 164 155 159 170 174 170 170 169 168 167 169 158 156 163 163 160
169 165 172 175 179 180 172 165 158 160 156 185 202 179 171 163 156 162 163 173 173 180 179 174 180 179 180 171 167 169 173 180 182 178 175 174 172 167 166 169 173 177 178
172 172 176 182 176 171 174 172 176 185 189 194 196 176 169 163 155 165 168 172 172 179 183 178 181 179 173 174 177 175 179 185 187 183 181 181 175 172 177 183 186 191 195
173 175 182 185 176 174 178 177 186 191 190 200 197 164 162 161 159 161 179 181 178 182 176 185 189 184 180 176 180 189 190 189 193 193 191 192 187 187 186 191 198 206 208
177 176 176 182 175 173 185 194 195 189 193 204 190 162 159 143 160 166 190 186 182 186 181 183 190 189 182 177 183 198 197 194 196 200 201 200 200 198 198 202 207 210 216
182 180 179 174 177 183 188 187 183 187 189 172 155 133 102 128 143 172 191 190 184 189 184 187 184 182 188 188 189 200 203 199 204 207 208 210 211 212 210 210 212 216 219
191 190 184 184 180 173 181 189 183 179 189 177 180 156 165 166 181 182 188 193 191 188 188 194 190 186 186 196 202 194 209 208 210 210 212 212 209 214 216 219 220 222 224
187 191 189 189 188 188 195 193 188 186 186 186 189 154 152 186 150 159 197 199 188 189 190 194 200 195 193 196 205 206 204 214 219 216 213 215 214 213 220 223 225 229 231
189 190 186 185 188 197 203 203 198 197 187 194 183 202 178 155 166 147 168 212 198 192 196 193 197 203 204 201 204 206 212 216 221 226 225 219 219 218 221 229 230 232 235
189 188 183 185 189 196 203 207 208 205 197 189 192 187 185 188 119 149 165 183 213 206 198 193 193 203 208 206 206 212 216 220 223 226 227 229 228 225 224 226 230 234 236
194 194 186 188 192 198 193 213 213 211 201 199 191 182 180 177 172 162 152 177 196 200 189 195 195 204 206 207 208 213 218 222 226 228 230 230 229 232 229 230 236 239 240
195 187 179 180 185 197 203 210 214 219 214 200 188 180 185 189 177 140 116 168 190 173 184 204 202 206 206 208 213 214 220 222 226 229 231 233 234 235 237 235 236 240 243
179 171 175 170 177 195 207 216 221 225 222 194 175 167 167 177 165 144 173 137 156 198 205 181 187 199 210 210 213 217 219 224 225 228 230 232 235 238 238 239 240 241 244
167 168 165 176 183 205 216 219 220 214 190 184 181 173 162 164 146 149 161 157 163 181 216 218 188 198 208 210 210 206 214 224 226 229 233 236 237 239 241 244 246 244 244
164 164 165 177 185 203 214 216 219 200 190 189 181 176 171 175 151 148 158 170 170 154 179 198 211 198 215 216 220 209 216 219 223 230 234 238 239 240 245 246 246 247 249
165 168 173 174 187 197 200 210 207 199 191 177 176 176 174 172 174 151 158 151 238 138 147 195 194 224 200 209 213 213 220 220 228 234 239 241 245 248 251 249 250 257 265
165 165 171 172 182 192 187 206 201 196 198 193 176 174 173 163 172 172 184 189 197 211 148 191 199 189 204 197 229 199 216 222 224 240 244 249 252 256 272 274 274 277 281
155 159 171 175 184 192 182 195 199 176 163 187 178 173 171 174 186 185 201 208 201 194 194 179 195 167 191 179 242 213 211 222 230 248 271 56 65 80 71 64 64 64 65
149 166 173 176 182 181 179 192 191 182 162 158 168 176 171 184 193 192 197 203 190 190 179 196 227 184 173 198 200 207 244 202 234 100 80 92 83 75 69 62 65 69 66
168 163 155 153 158 147 73 207 190 189 183 173 173 187 193 192 193 193 189 196 182 188 178 204 212 171 175 183 196 203 218 218 89 41 95 82 77 78 69 63 65 62 62
70 85 77 79 71 75 8 10 325 189 185 189 180 181 181 192 104 109 107 74 150 204 216 215 209 199 193 169 68 128 210 174 198 32 157 81 84 71 65 69 75 78 71
78 73 77 76 65 40 18 48 69 65 77 65 60 81 106 69 106 110 96 94 69 60 45 180 199 137 144 113 105 32 261 56 84 28 317 90 56 78 56 83 79 75 71
41 56 67 72 74 51 52 59 83 83 74 63 57 59 79 81 53 125 108 88 75 57 48 64 82 99 93 132 199 76 96 109 94 66 5 117 134 100 56 52 73 72 69
44 27 42 50 67 61 60 62 71 83 77 61 53 50 71 77 110 118 108 101 93 79 71 77 78 74 65 56 86 136 135 132 107 11 3 101 127 112 53 47 62 67 62
42 58 20 41 44 62 68 66 72 76 77 71 50 44 46 75 98 105 107 111 96 87 82 74 64 58 48 45 51 53 100 193 116 108 315 95 121 140 115 18 335 46 49